EHI
13 12 10 8 6 6 6 5 4 3 4 5 4 5 6 5 2 1 2 1 0 0 0 0 0 0 0 0 0 0 0 0 0 0 0 0 0 0
14 13 11 7 6 7 7 5 4 4 5 6 5 5 5 4 3 3 3 2 0 0 0 0 0 0 0 0 0 0 0 0 0 0 0 0 0 0
13 13 9 6 5 6 6 5 5 7 7 6 6 6 6 5 3 3 3 2 0 0 0 0 0 0 0 0 0 0 0 0 0 0 0 0 0 0
12 11 10 7 5 5 5 5 5 7 8 6 5 6 7 6 4 2 1 0 0 0 0 0 0 0 0 0 0 0 0 0 0 0 0 0 0 0
11 11 11 10 7 6 6 5 5 5 7 7 5 5 6 5 3 1 0 0 0 0 0 0 0 0 0 0 0 0 0 0 0 0 0 0 0 0
10 10 10 10 8 6 6 7 7 7 7 6 5 5 6 5 3 1 1 1 0 0 0 0 0 0 0 0 0 0 0 0 0 0 0 0 0 0
8 9 9 7 5 4 5 6 8 9 8 5 3 4 5 5 4 2 1 0 0 0 1 1 0 0 0 0 0 0 0 0 0 0 0 0 0 0
7 7 7 5 4 4 4 3 5 7 7 4 3 2 3 4 4 3 1 0 0 1 2 2 1 1 0 0 0 0 0 0 0 0 0 0 0 0
9 8 6 5 4 6 5 3 3 3 2 3 3 3 3 3 4 3 1 0 1 3 3 2 2 2 1 0 0 0 0 0 0 0 0 0 0 0
9 8 7 6 5 6 7 7 6 4 1 1 2 3 2 3 3 2 1 0 1 3 3 1 1 1 1 0 0 0 0 0 0 0 0 0 0 0
7 7 7 7 6 6 7 9 10 8 4 2 1 1 1 1 1 1 0 0 1 1 2 1 1 1 0 0 0 0 0 0 0 0 0 0 0 0
8 8 6 5 5 4 6 9 10 9 8 5 2 0 0 0 0 0 0 0 0 0 1 1 1 0 0 0 0 0 0 0 0 0 0 0 0 0
10 9 6 3 2 2 5 7 7 8 8 7 4 2 2 1 0 0 1 1 0 0 0 0 0 0 0 0 0 0 0 0 0 0 0 0 0 0
9 8 5 2 1 1 2 4 5 5 7 7 5 5 5 3 1 2 3 2 1 1 0 0 1 1 0 0 0 0 0 0 0 0 0 0 0 0
6 4 2 1 0 0 1 1 2 4 5 5 4 5 4 3 3 5 6 5 3 2 1 1 2 2 1 0 0 0 0 1 1 1 0 0 0 0
2 1 0 0 0 1 1 0 1 3 3 2 3 4 3 2 4 6 6 5 3 2 1 1 2 3 2 1 0 0 0 1 2 2 1 0 0 0
1 1 2 2 2 3 2 1 1 3 3 2 3 5 4 3 2 4 4 3 1 1 0 1 2 4 3 2 1 0 0 1 1 2 2 1 0 0
3 4 5 5 5 5 4 2 2 4 5 5 5 6 5 3 2 2 2 1 1 1 1 1 3 3 3 2 2 1 0 0 1 2 2 1 0 0
4 6 6 6 6 6 5 3 3 5 7 7 6 6 6 4 1 1 1 1 2 2 1 2 3 3 3 2 2 1 0 1 2 2 1 1 0 0
5 6 6 6 6 5 4 3 4 5 6 5 4 5 5 3 1 0 0 1 1 2 2 2 2 2 2 2 1 1 1 1 2 2 1 0 0 0
5 6 6 6 5 4 3 3 4 5 5 4 3 4 4 3 2 1 0 0 0 1 1 1 1 1 1 1 2 1 1 1 1 1 1 0 0 0
5 6 6 5 4 3 3 4 4 5 5 4 3 3 3 3 2 1 0 0 0 0 0 0 0 0 0 1 1 1 0 0 0 0 0 0 0 0
6 6 6 5 4 3 3 4 4 5 6 5 4 3 2 1 1 1 0 0 0 0 0 0 0 0 0 0 0 0 0 0 0 0 0 0 0 0
Wind_Speed
3 3 2 2 1 2 1 1 1 2 2 1 0 0 0 2 5 3 3 6 7 7 7 7 6 5 4 3 3 3 3 3 3 3 3 4 4 4
2 2 2 2 2 1 1 1 2 2 2 1 1 0 0 0 3 1 2 5 6 7 7 7 6 6 5 4 4 3 3 3 3 3 4 4 4 4
2 2 2 3 2 2 1 1 2 1 2 2 1 0 0 0 0 1 2 2 3 7 6 6 7 6 6 5 4 4 3 3 3 3 3 4 4 4
2 2 2 2 2 2 2 2 2 1 1 2 1 1 1 1 1 2 2 2 2 5 7 7 7 7 6 6 5 4 4 3 3 3 3 3 4 4
2 2 2 2 2 2 2 2 2 2 1 1 2 1 1 0 1 2 2 1 2 3 5 6 6 7 6 6 6 5 5 4 4 3 3 3 3 3
2 2 2 2 2 2 2 2 2 2 1 1 2 1 1 1 0 1 1 1 1 1 1 2 4 6 6 6 6 6 6 5 5 4 4 3 3 3
2 2 2 2 2 2 3 1 2 2 1 2 2 1 1 0 1 1 1 1 1 1 1 1 1 2 3 5 6 6 6 6 5 4 4 4 4 3
3 3 3 3 3 3 4 4 3 3 2 2 2 2 2 2 1 2 1 1 1 1 0 1 1 1 2 2 5 6 6 6 5 5 5 4 4 4
3 3 5 4 2 2 3 4 4 5 5 3 3 3 3 2 1 2 2 2 2 2 1 2 1 1 2 1 5 6 5 5 5 5 5 5 4 4
4 4 3 3 3 2 3 3 3 4 5 5 4 4 3 2 2 2 3 2 2 2 1 1 1 1 1 0 3 6 6 6 5 5 5 5 5 4
4 3 3 3 2 3 3 4 3 3 3 3 4 4 5 4 2 1 2 1 2 2 1 1 1 1 1 1 2 5 5 6 6 5 6 6 5 4
2 2 2 3 3 3 3 3 4 3 2 2 3 4 4 4 5 3 2 2 1 1 1 0 1 1 1 1 1 2 3 4 5 5 5 6 6 3
3 2 1 2 3 4 4 3 4 4 3 3 3 2 3 2 3 4 3 3 2 2 1 0 1 1 1 1 1 2 2 2 2 2 4 5 5 4
4 2 1 1 2 3 3 4 5 4 3 3 2 2 2 2 2 3 3 3 3 3 3 2 1 1 1 2 2 1 1 2 2 2 2 3 3 4
3 3 3 4 4 4 5 6 4 3 3 2 2 2 2 2 2 2 2 3 3 3 3 3 3 2 2 2 2 1 1 1 1 1 2 2 2 2
3 3 4 5 5 4 4 3 3 3 2 2 2 2 2 1 2 1 2 2 1 2 2 2 2 3 3 2 2 1 1 1 1 1 1 1 1 1
2 2 3 3 3 3 3 3 3 3 3 2 2 2 2 2 1 1 1 2 2 2 1 1 1 1 2 2 2 2 1 1 1 1 1 1 1 2
1 3 3 3 4 3 3 3 3 3 3 3 2 2 2 1 1 1 1 1 2 1 1 1 1 1 0 0 1 2 1 1 1 1 1 1 1 1
3 4 4 4 4 4 3 3 3 3 3 3 2 2 2 1 1 1 1 1 1 1 1 1 1 1 1 1 1 1 1 1 1 1 1 1 1 1
4 5 4 4 4 4 3 3 3 2 2 2 2 2 2 2 1 1 1 1 1 1 1 1 1 1 2 2 1 1 2 2 1 1 1 0 0 1
4 4 4 4 4 4 3 3 2 2 2 2 2 2 2 2 2 2 1 2 1 1 1 1 1 2 1 1 0 0 1 1 0 1 1 1 1 1
4 4 3 3 2 2 2 2 2 2 2 2 2 2 2 2 2 2 2 1 1 1 1 1 1 1 1 1 1 0 0 0 1 1 0 2 2 2
3 3 2 2 1 1 1 2 2 2 2 2 1 1 1 1 1 1 1 1 1 1 1 1 1 1 1 1 1 1 1 1 1 0 1 2 2 3
Wind_Direction
260 268 278 276 283 291 294 275 267 281 279 270 299 239 99 108 147 170 162 175 184 193 202 207 208 211 216 225 235 246 251 252 252 253 258 263 263 260
247 258 273 288 278 270 279 290 277 259 265 265 246 212 321 101 159 168 147 162 189 200 206 203 203 205 207 216 224 235 240 246 245 242 250 260 263 266
258 246 246 282 298 298 288 277 278 271 254 284 284 138 297 356 186 230 180 181 188 197 198 197 200 202 204 213 224 231 238 245 245 246 252 257 259 265
255 267 262 262 273 286 294 284 281 279 245 261 267 232 238 195 208 232 216 212 186 184 194 197 199 200 202 207 215 221 225 231 237 247 255 256 255 259
252 257 262 266 268 269 270 276 272 284 254 251 260 248 243 272 243 256 261 236 229 186 189 196 199 201 204 210 215 219 222 225 229 236 248 259 256 257
252 252 259 264 266 277 271 278 283 283 274 262 255 245 227 262 286 282 295 279 278 236 165 187 198 205 208 211 219 221 221 221 222 226 235 248 253 249
272 268 265 263 258 264 276 280 287 288 280 264 260 255 245 247 256 258 271 288 287 266 148 210 206 206 216 223 224 222 217 213 214 221 228 237 245 243
254 258 260 239 226 248 261 261 249 255 263 267 271 269 260 248 239 251 262 261 268 263 211 264 215 221 232 210 200 197 201 203 208 217 225 232 240 243
257 258 266 261 249 260 262 243 242 242 232 240 260 265 263 253 240 258 264 272 266 266 252 278 261 244 249 222 172 181 188 196 205 214 221 228 233 238
257 247 254 269 276 284 279 267 250 248 234 227 245 258 263 267 254 242 250 261 255 263 228 243 265 273 319 103 174 180 188 199 208 215 222 226 228 229
260 257 250 242 260 274 274 280 273 269 263 238 234 245 252 259 259 253 246 241 263 269 261 207 251 284 276 234 196 196 207 213 216 220 221 224 221 217
251 240 248 231 248 246 255 273 276 280 294 284 251 249 243 232 222 216 230 230 249 264 250 187 254 286 280 256 194 195 209 222 227 231 230 224 213 204
262 242 216 211 232 239 251 260 266 277 272 265 249 236 232 224 211 207 218 217 228 254 246 198 251 271 263 286 278 219 204 198 200 225 227 219 215 202
275 273 242 246 262 254 250 253 271 272 261 257 248 230 227 223 217 207 205 208 214 224 225 217 230 234 254 274 273 254 231 205 189 201 196 195 210 218
279 288 275 263 271 264 244 240 247 244 239 241 244 241 230 222 211 207 202 204 216 224 215 211 205 217 224 245 260 247 250 234 200 194 185 182 196 192
261 274 262 256 262 260 259 234 225 232 230 240 249 250 243 219 211 211 207 201 212 234 226 219 209 208 227 236 233 235 232 222 209 192 185 190 179 178
268 255 258 251 245 239 234 227 221 222 227 239 255 261 243 220 215 220 213 209 217 226 231 231 220 213 209 215 211 216 210 214 213 202 191 207 196 194
232 257 253 247 243 241 237 224 215 219 222 219 236 249 238 222 213 217 211 211 233 235 229 226 210 220 273 311 231 219 219 214 214 204 195 212 218 199
234 248 248 244 246 245 241 237 229 218 214 217 224 235 236 231 215 215 223 223 222 221 232 237 206 195 222 253 297 268 210 225 227 223 218 211 210 198
228 235 240 239 237 243 245 237 230 217 205 214 223 229 231 228 218 214 218 232 230 213 231 245 212 214 226 231 242 283 249 217 211 212 223 282 85 131
243 241 240 241 236 231 232 230 214 209 214 219 225 227 225 223 228 229 223 228 226 210 216 233 240 230 224 175 185 283 356 349 178 191 209 217 247 240
250 254 250 245 243 238 227 218 214 207 206 214 223 224 217 215 224 231 228 215 222 229 234 234 240 221 196 192 206 211 303 329 15 46 207 224 222 227
262 268 267 254 251 252 239 232 232 216 198 208 207 213 249 244 234 237 228 213 230 249 231 216 230 241 220 203 184 205 221 214 247 299 315 290 223 225